Location: Pisa
(43.7170°N, 10.3830°E)
Time: 06:25:19
(UTC+02:00)

ISS - Pass Details

Date: 19 May 2021
Orbit: 417 x 422 km, 51.6° (Epoch: 21 June)

Event Time Altitude Azimuth Distance (km) Brightness Sun altitude
Rises 22:04:34 0° 266° (W) 2,359 0.7 -12.8°
Reaches altitude 10° 22:06:49 10° 277° (W) 1,498 -0.1 -13.1°
Maximum altitude 22:09:50 31° 342° (NNW) 771 -1.7 -13.5°
Drops below altitude 10° 22:12:54 10° 46° (NE) 1,505 -0.9 -13.9°
Sets 22:15:09 0° 57° (ENE) 2,372 0.0 -14.2°
